Weather in Zvezdniy

Russia / Perm Krai     57°44′06″N   56°18′58″E
temp.,
°C
wind,
m/s
gust,
m/s
humid.,
%
clouds,
%
prec.,
mm/h
press.,
hPa
HPBL,
m
2 march, tue
tue223:00−17sw369787 0.1 1015126
02:00−17ssw4109559 0.0 1012255
05:00−15ssw5138978 0.0 1009397
08:00−14ssw61491100 0.1 1005471
11:00−14ssw61391100 0.4 1003536
14:00−12ssw61391100 0.4 1000582
17:00−10ssw51189100 0.7 999623
20:00−10s31193100 0.3 997484
3 march, wed
wed323:00−8s31195100 0.9 996461
02:00−7s2796100 0.9 994290
05:00−9ssw1196100 1.4 99421
08:00−10wnw229798 0.0 99421
11:00−6w259594 0.1 995244
14:00−2w359296 0.0 995525
17:00−2w359098 0.1 996627
20:00−4sw2397100 0.2 99685
4 march, thu
thu423:00−5w3697100 0.6 997201
02:00−7nw4895100 0.7 997425
05:00−11w369698 0.8 999140
08:00−13wsw389548 0.0 999170
11:00−9wsw489166 0.1 1000348
14:00−7wsw588893 0.0 1000569
17:00−6sw598896 0.1 1000666
20:00−8ssw41192100 0.1 998498
5 march, fri
fri523:00−7s41393100 0.1 996621
02:00−6s71593100 0.5 991811
05:00−2ssw61495100 1.9 9871005
08:00−2wsw9178398 1.1 9861313
11:00−5wsw8138690 1.6 9901307
14:00−6w91485100 0.4 9941101
17:00−8w71288100 0.5 999843
20:00−10w51192100 0.1 1003457
6 march, sat
sat623:00−13w3895100 0.1 1006195
02:00−16w359798 0.1 100899
05:00−18wsw239890 0.1 101025
08:00−19wsw129892 0.0 101120
11:00−14se119096 0.0 1010203
14:00−11e2389100 0.0 1006376
17:00−11ene2492100 0.1 1003366
20:00−11n4795100 1.1 1000343